,,PA_Meas_PMT16A,,PR_Meas_QMR101_102,,RH_Meas_QMH101,,SR_Meas_QMS101,,TA_Meas_QMH101,,GenWind,,GenWind,
time,status,PA,status,PR,status,RH,status,SR,status,TA,status,DirAvg,status,SpdAvg,
2012-08-04, 00:00:04,VALID,917.009,VALID,0,VALID,94.2102,VALID,0,VALID,19.6068,VALID,135,VALID,2.21992,
2012-08-04, 00:01:04,VALID,917.011,VALID,0,VALID,94.3245,VALID,0,VALID,19.5873,VALID,134,VALID,2.10859,
2012-08-04, 00:02:04,VALID,917.031,VALID,0,VALID,94.4389,VALID,0,VALID,19.5873,VALID,120,VALID,1.05273,
2012-08-04, 00:03:04,VALID,917.013,VALID,0,VALID,94.355,VALID,0,VALID,19.6068,VALID,152,VALID,1.51406,
2012-08-04, 00:04:04,VALID,916.995,VALID,0,VALID,94.1949,VALID,0,VALID,19.6068,VALID,127,VALID,1.98047,
2012-08-04, 00:05:04,VALID,916.956,VALID,0,VALID,94.0348,VALID,0.107441,VALID,19.6068,VALID,162,VALID,1.77109,
2012-08-04, 00:06:04,VALID,916.899,VALID,0,VALID,93.6384,VALID,0,VALID,19.6653,VALID,109,VALID,0,
2012-08-04, 00:07:04,VALID,916.891,VALID,0,VALID,93.1963,VALID,0,VALID,19.7043,VALID,127,VALID,0,
2012-08-04, 00:08:04,VALID,916.841,VALID,0,VALID,92.777,VALID,0,VALID,19.7433,VALID,171,VALID,0.326562,
2012-08-04, 00:09:04,VALID,916.825,VALID,0,VALID,91.946,VALID,0,VALID,19.8018,VALID,116,VALID,2.43203,
2012-08-04, 00:10:04,VALID,916.886,VALID,0,VALID,91.0083,VALID,0,VALID,19.9188,VALID,119,VALID,1.76797,
2012-08-04, 00:11:04,VALID,916.842,VALID,0,VALID,89.9639,VALID,0,VALID,20.0163,VALID,135,VALID,2.49883,
2012-08-04, 00:12:04,VALID,916.83,VALID,0,VALID,88.9119,VALID,0,VALID,20.1529,VALID,116,VALID,2.91094,
2012-08-04, 00:13:04,VALID,916.803,VALID,0,VALID,87.9895,VALID,0,VALID,20.2909,VALID,123,VALID,2.74844,
2012-08-04, 00:14:04,VALID,916.799,VALID,0,VALID,87.3872,VALID,0,VALID,20.3869,VALID,147,VALID,2.62031,
2012-08-04, 00:15:04,VALID,916.758,VALID,0,VALID,86.7164,VALID,0,VALID,20.465,VALID,128,VALID,2.40117,
2012-08-04, 00:16:04,VALID,916.757,VALID,0,VALID,86.602,VALID,0,VALID,20.504,VALID,129,VALID,2.23125,
2012-08-04, 00:17:04,VALID,916.774,VALID,0,VALID,86.9069,VALID,0,VALID,20.5235,VALID,170,VALID,2.03633,
2012-08-04, 00:18:04,VALID,916.798,VALID,0,VALID,87.1509,VALID,0,VALID,20.465,VALID,157,VALID,1.93711,
2012-08-04, 00:19:04,VALID,916.816,VALID,0,VALID,87.1738,VALID,0,VALID,20.4454,VALID,174,VALID,1.66602,
2012-08-04, 00:20:04,VALID,916.79,VALID,0,VALID,87.2347,VALID,0,VALID,20.4665,VALID,170,VALID,1.92734,
2012-08-04, 00:21:04,VALID,916.807,VALID,0,VALID,87.3796,VALID,0,VALID,20.4064,VALID,167,VALID,2.8207,
2012-08-04, 00:22:04,VALID,916.803,VALID,0,VALID,87.6464,VALID,0,VALID,20.4259,VALID,165,VALID,2.94297,
2012-08-04, 00:23:04,VALID,916.849,VALID,0,VALID,87.3491,VALID,0,VALID,20.3869,VALID,190,VALID,2.57227,
2012-08-04, 00:24:04,VALID,916.864,VALID,0,VALID,87.7074,VALID,0,VALID,20.4064,VALID,185,VALID,1.8125,
2012-08-04, 00:25:04,VALID,916.849,VALID,0,VALID,88.3401,VALID,0,VALID,20.3479,VALID,201,VALID,2.01484,
2012-08-04, 00:26:04,VALID,916.846,VALID,0,VALID,88.9576,VALID,0,VALID,20.2519,VALID,194,VALID,1.82539,
2012-08-04, 00:27:04,VALID,916.852,VALID,0,VALID,89.3693,VALID,0,VALID,20.1544,VALID,201,VALID,1.74648,
2012-08-04, 00:28:04,VALID,916.846,VALID,0,VALID,89.7352,VALID,0,VALID,20.0749,VALID,194,VALID,1.40195,
2012-08-04, 00:29:04,VALID,916.841,VALID,0,VALID,90.0783,VALID,0,VALID,20.0358,VALID,199,VALID,0.765625,
2012-08-04, 00:30:04,VALID,916.843,VALID,0,VALID,90.3451,VALID,0,VALID,19.9984,VALID,179,VALID,0,
2012-08-04, 00:31:04,VALID,916.814,VALID,0,VALID,90.6195,VALID,0,VALID,19.9578,VALID,194,VALID,0,
2012-08-04, 00:32:04,VALID,916.831,VALID,0,VALID,90.7034,VALID,0,VALID,19.9593,VALID,166,VALID,0,
2012-08-04, 00:33:04,VALID,916.861,VALID,0,VALID,90.8635,VALID,0,VALID,19.9188,VALID,156,VALID,0,
2012-08-04, 00:34:04,VALID,916.884,VALID,0,VALID,91.0541,VALID,0,VALID,19.8813,VALID,158,VALID,0,
2012-08-04, 00:35:04,VALID,916.885,VALID,0,VALID,91.2218,VALID,0,VALID,19.9008,VALID,159,VALID,0,
2012-08-04, 00:36:04,VALID,916.915,VALID,0,VALID,91.237,VALID,0,VALID,19.8603,VALID,159,VALID,0,
2012-08-04, 00:37:04,VALID,916.953,VALID,0,VALID,91.2904,VALID,0,VALID,19.8603,VALID,159,VALID,0,
2012-08-04, 00:38:04,VALID,917.037,VALID,0,VALID,91.359,VALID,0,VALID,19.8813,VALID,159,VALID,0,
2012-08-04, 00:39:04,VALID,917.084,VALID,0,VALID,91.4657,VALID,0,VALID,19.8813,VALID,211,VALID,0,
2012-08-04, 00:40:04,VALID,917.157,VALID,0,VALID,91.5191,VALID,0,VALID,19.8618,VALID,217,VALID,0,
2012-08-04, 00:41:04,VALID,917.212,VALID,0,VALID,91.4886,VALID,0,VALID,19.8408,VALID,217,VALID,0,
2012-08-04, 00:42:04,VALID,917.223,VALID,0,VALID,91.5801,VALID,0,VALID,19.8018,VALID,217,VALID,0,
2012-08-04, 00:43:04,VALID,917.279,VALID,0,VALID,91.4429,VALID,0,VALID,19.7823,VALID,217,VALID,0,
2012-08-04, 00:44:04,VALID,917.267,VALID,0,VALID,91.7173,VALID,0,VALID,19.7253,VALID,217,VALID,0,
2012-08-04, 00:45:04,VALID,917.29,VALID,0,VALID,92.0451,VALID,0,VALID,19.6458,VALID,217,VALID,0,
2012-08-04, 00:46:04,VALID,917.33,VALID,0,VALID,92.4034,VALID,0,VALID,19.5873,VALID,217,VALID,0,
2012-08-04, 00:47:04,VALID,917.336,VALID,0,VALID,92.6321,VALID,0,VALID,19.5498,VALID,217,VALID,0,
2012-08-04, 00:48:04,VALID,917.384,VALID,0,VALID,92.9752,VALID,0,VALID,19.5093,VALID,217,VALID,0,
2012-08-04, 00:49:04,VALID,917.373,VALID,0,VALID,93.2572,VALID,0,VALID,19.4898,VALID,217,VALID,0,
2012-08-04, 00:50:04,VALID,917.373,VALID,0,VALID,93.5317,VALID,0,VALID,19.5108,VALID,217,VALID,0,
2012-08-04, 00:51:04,VALID,917.364,VALID,0,VALID,93.7147,VALID,0,VALID,19.5093,VALID,217,VALID,0,
2012-08-04, 00:52:04,VALID,917.373,VALID,0,VALID,93.6765,VALID,0,VALID,19.5093,VALID,217,VALID,0,
2012-08-04, 00:53:04,VALID,917.374,VALID,0,VALID,93.6765,VALID,0,VALID,19.5093,VALID,217,VALID,0,
2012-08-04, 00:54:04,VALID,917.347,VALID,0,VALID,93.4707,VALID,0,VALID,19.4913,VALID,217,VALID,0,
2012-08-04, 00:55:04,VALID,917.411,VALID,0,VALID,93.4707,VALID,0,VALID,19.4523,VALID,217,VALID,0,
2012-08-04, 00:56:04,VALID,917.377,VALID,0,VALID,93.7147,VALID,0,VALID,19.4118,VALID,217,VALID,0,
2012-08-04, 00:57:04,VALID,917.39,VALID,0,VALID,93.7833,VALID,0,VALID,19.4327,VALID,217,VALID,0,
2012-08-04, 00:58:04,VALID,917.448,VALID,0,VALID,94.012,VALID,0,VALID,19.4132,VALID,217,VALID,0,
2012-08-04, 00:59:04,VALID,917.423,VALID,0,VALID,94.1797,VALID,0,VALID,19.4132,VALID,217,VALID,0,
2012-08-04, 01:00:04,VALID,917.42,VALID,0,VALID,94.2635,VALID,0,VALID,19.4523,VALID,217,VALID,0,
2012-08-04, 01:01:04,VALID,917.429,VALID,0,VALID,94.2712,VALID,0,VALID,19.4327,VALID,217,VALID,0,
2012-08-04, 01:02:04,VALID,917.428,VALID,0,VALID,94.294,VALID,0,VALID,19.4523,VALID,217,VALID,0,
2012-08-04, 01:03:04,VALID,917.418,VALID,0,VALID,94.2864,VALID,0,VALID,19.4313,VALID,217,VALID,0,
2012-08-04, 01:04:04,VALID,917.443,VALID,0,VALID,94.3779,VALID,0,VALID,19.4913,VALID,217,VALID,0,
2012-08-04, 01:05:04,VALID,917.421,VALID,0,VALID,94.3398,VALID,0,VALID,19.4898,VALID,217,VALID,0,
2012-08-04, 01:06:04,VALID,917.409,VALID,0,VALID,94.3626,VALID,0,VALID,19.4913,VALID,217,VALID,0,
2012-08-04, 01:07:04,VALID,917.432,VALID,0,VALID,94.3703,VALID,0,VALID,19.4898,VALID,217,VALID,0,
2012-08-04, 01:08:04,VALID,917.437,VALID,0,VALID,94.477,VALID,0,VALID,19.4898,VALID,217,VALID,0,
2012-08-04, 01:09:04,VALID,917.429,VALID,0,VALID,94.5227,VALID,0,VALID,19.4913,VALID,217,VALID,0,
2012-08-04, 01:10:04,VALID,917.411,VALID,0,VALID,94.6218,VALID,0,VALID,19.4913,VALID,217,VALID,0,
2012-08-04, 01:11:04,VALID,917.441,VALID,0,VALID,94.7286,VALID,0,VALID,19.4913,VALID,212,VALID,0,
2012-08-04, 01:12:04,VALID,917.419,VALID,0,VALID,94.7514,VALID,0,VALID,19.4898,VALID,212,VALID,0,
2012-08-04, 01:13:04,VALID,917.472,VALID,0,VALID,94.8124,VALID,0,VALID,19.4913,VALID,1,VALID,0,
2012-08-04, 01:14:04,VALID,917.45,VALID,0,VALID,94.8048,VALID,0,VALID,19.4703,VALID,358,VALID,0,
2012-08-04, 01:15:04,VALID,917.449,VALID,0,VALID,94.8429,VALID,0,VALID,19.4898,VALID,358,VALID,0,
2012-08-04, 01:16:04,VALID,917.459,VALID,0,VALID,94.8429,VALID,0,VALID,19.5303,VALID,358,VALID,0,
2012-08-04, 01:17:04,VALID,917.454,VALID,0,VALID,94.8658,VALID,0,VALID,19.5303,VALID,358,VALID,0,
2012-08-04, 01:18:04,VALID,917.452,VALID,0,VALID,94.8505,VALID,0,VALID,19.5498,VALID,358,VALID,0,
2012-08-04, 01:19:04,VALID,917.423,VALID,0,VALID,94.8582,VALID,0,VALID,19.5498,VALID,356,VALID,0,
2012-08-04, 01:20:04,VALID,917.451,VALID,0,VALID,94.8277,VALID,0,VALID,19.5498,INVALID,360,VALID,0,
2012-08-04, 01:21:04,VALID,917.425,VALID,0,VALID,94.7896,VALID,0,VALID,19.5498,VALID,343,VALID,0,
2012-08-04, 01:22:04,VALID,917.406,VALID,0,VALID,94.8429,VALID,0,VALID,19.5498,VALID,343,VALID,0,
2012-08-04, 01:23:04,VALID,917.387,VALID,0,VALID,94.9115,VALID,0,VALID,19.5693,VALID,343,VALID,0,
2012-08-04, 01:24:04,VALID,917.358,VALID,0,VALID,94.8353,VALID,0,VALID,19.5693,VALID,343,VALID,0,
2012-08-04, 01:25:04,VALID,917.378,VALID,0,VALID,94.8124,VALID,0,VALID,19.5483,VALID,348,VALID,0,
2012-08-04, 01:26:04,VALID,917.39,VALID,0,VALID,94.7743,VALID,0,VALID,19.5693,VALID,348,VALID,0,
2012-08-04, 01:27:04,VALID,917.385,VALID,0,VALID,94.8353,VALID,0,VALID,19.5693,VALID,348,VALID,0,
2012-08-04, 01:28:04,VALID,917.406,VALID,0,VALID,94.8277,VALID,0,VALID,19.5888,VALID,349,VALID,0,
2012-08-04, 01:29:04,VALID,917.394,VALID,0,VALID,94.8277,VALID,0,VALID,19.5888,VALID,348,VALID,0,
2012-08-04, 01:30:04,VALID,917.379,VALID,0,VALID,94.8353,VALID,0,VALID,19.5888,VALID,349,VALID,0,
2012-08-04, 01:31:04,VALID,917.358,VALID,0,VALID,94.8353,VALID,0,VALID,19.5888,VALID,348,VALID,0,
2012-08-04, 01:32:04,VALID,917.347,VALID,0,VALID,94.7667,VALID,0,VALID,19.5678,VALID,349,VALID,0,
2012-08-04, 01:33:04,VALID,917.277,VALID,0,VALID,94.7209,VALID,0,VALID,19.6083,VALID,349,VALID,0,
2012-08-04, 01:34:04,VALID,917.269,VALID,0,VALID,94.7438,VALID,0,VALID,19.5678,VALID,3,VALID,0,
2012-08-04, 01:35:04,VALID,917.24,VALID,0,VALID,94.7743,VALID,0,VALID,19.5693,VALID,3,VALID,0,
2012-08-04, 01:36:04,VALID,917.202,VALID,0,VALID,94.7972,VALID,0,VALID,19.5498,VALID,3,VALID,0,
2012-08-04, 01:37:04,VALID,917.206,VALID,0,VALID,94.881,VALID,0,VALID,19.5303,VALID,3,VALID,0,
2012-08-04, 01:38:04,VALID,917.258,VALID,0,VALID,94.942,VALID,0,VALID,19.5108,VALID,3,VALID,0,
2012-08-04, 01:39:04,VALID,917.213,VALID,0,VALID,94.9725,VALID,0,VALID,19.4898,VALID,3,VALID,0,
2012-08-04, 01:40:04,VALID,917.238,VALID,0,VALID,95.003,VALID,0,VALID,19.5303,VALID,3,VALID,0,
2012-08-04, 01:41:04,VALID,917.249,VALID,0,VALID,95.0792,VALID,0,VALID,19.5498,VALID,3,VALID,0,
2012-08-04, 01:42:04,VALID,917.221,VALID,0,VALID,95.0488,VALID,0,VALID,19.5288,VALID,265,VALID,0,
2012-08-04, 01:43:04,VALID,917.229,VALID,0,VALID,95.064,VALID,0,VALID,19.5288,VALID,265,VALID,0,
2012-08-04, 01:44:04,VALID,917.251,VALID,0,VALID,95.064,VALID,0,VALID,19.5498,VALID,265,VALID,0,
2012-08-04, 01:45:04,VALID,917.233,VALID,0,VALID,95.0564,VALID,0,VALID,19.5483,VALID,265,VALID,0,
2012-08-04, 01:46:04,VALID,917.212,VALID,0,VALID,95.0792,VALID,0,VALID,19.5693,VALID,265,VALID,0,
2012-08-04, 01:47:04,VALID,917.206,VALID,0,VALID,95.125,VALID,0,VALID,19.5693,VALID,265,VALID,0,
2012-08-04, 01:48:04,VALID,917.183,VALID,0,VALID,95.1936,VALID,0,VALID,19.5483,VALID,265,VALID,0,
2012-08-04, 01:49:04,VALID,917.183,VALID,0,VALID,95.2241,VALID,0,VALID,19.5693,VALID,265,VALID,0,
2012-08-04, 01:50:04,VALID,917.144,VALID,0,VALID,95.2775,VALID,0,VALID,19.5678,VALID,265,VALID,0,
2012-08-04, 01:51:04,VALID,917.119,VALID,0,VALID,95.2775,VALID,0,VALID,19.5888,VALID,265,VALID,0,
2012-08-04, 01:52:04,VALID,917.11,VALID,0,VALID,95.2775,VALID,0,VALID,19.5678,VALID,265,VALID,0,
2012-08-04, 01:53:04,VALID,917.11,VALID,0,VALID,95.3003,VALID,0,VALID,19.5888,VALID,265,VALID,0,
2012-08-04, 01:54:04,VALID,917.092,VALID,0,VALID,95.3232,VALID,0,VALID,19.6083,VALID,265,VALID,0,
2012-08-04, 01:55:04,VALID,917.094,VALID,0,VALID,95.3156,VALID,0,VALID,19.6083,VALID,265,VALID,0,
2012-08-04, 01:56:04,VALID,917.103,VALID,0,VALID,95.2698,VALID,0,VALID,19.5678,VALID,265,VALID,0,
2012-08-04, 01:57:04,VALID,917.126,VALID,0,VALID,95.2775,VALID,0,VALID,19.5693,VALID,265,VALID,0,
2012-08-04, 01:58:04,VALID,917.129,VALID,0,VALID,95.2622,VALID,0,VALID,19.5888,VALID,265,VALID,0,
2012-08-04, 01:59:04,VALID,917.099,VALID,0,VALID,95.2775,VALID,0,VALID,19.5888,VALID,265,VALID,0,
2012-08-04, 02:00:04,VALID,917.091,VALID,0,VALID,95.2698,VALID,0,VALID,19.5498,VALID,265,VALID,0,
2012-08-04, 02:01:04,VALID,917.054,VALID,0,VALID,95.2775,VALID,0,VALID,19.5288,VALID,265,VALID,0,
2012-08-04, 02:02:04,VALID,917.041,VALID,0,VALID,95.3003,VALID,0,VALID,19.5498,VALID,265,VALID,0,
2012-08-04, 02:03:04,VALID,917.005,VALID,0,VALID,95.3384,VALID,0,VALID,19.5693,VALID,265,VALID,0,
2012-08-04, 02:04:04,VALID,916.967,VALID,0,VALID,95.4147,VALID,0,VALID,19.5693,VALID,265,VALID,0,
2012-08-04, 02:05:04,VALID,916.954,VALID,0,VALID,95.3537,VALID,0,VALID,19.5888,VALID,266,VALID,0,
2012-08-04, 02:06:04,VALID,916.931,VALID,0,VALID,95.3079,VALID,0,VALID,19.5693,VALID,265,VALID,0,
2012-08-04, 02:07:04,VALID,916.948,VALID,0,VALID,95.4375,VALID,0,VALID,19.5483,VALID,265,VALID,0,
2012-08-04, 02:08:04,VALID,916.88,VALID,0,VALID,95.4147,VALID,0,VALID,19.5888,VALID,265,VALID,0,
2012-08-04, 02:09:04,VALID,916.833,VALID,0,VALID,95.3308,VALID,0,VALID,19.5888,VALID,356,VALID,0,
2012-08-04, 02:10:04,VALID,916.822,VALID,0,VALID,95.3079,VALID,0,VALID,19.5483,VALID,356,VALID,0,
2012-08-04, 02:11:04,VALID,916.774,VALID,0,VALID,95.3308,VALID,0,VALID,19.5693,VALID,356,VALID,0,
2012-08-04, 02:12:04,VALID,916.763,VALID,0,VALID,95.3766,VALID,0,VALID,19.5498,VALID,356,VALID,0,
2012-08-04, 02:13:04,VALID,916.719,VALID,0,VALID,95.4604,VALID,0,VALID,19.5483,VALID,356,VALID,0,
2012-08-04, 02:14:04,VALID,916.658,VALID,0,VALID,95.4223,VALID,0,VALID,19.5888,VALID,356,VALID,0,
2012-08-04, 02:15:04,VALID,916.62,VALID,0,VALID,95.3766,VALID,0,VALID,19.5483,VALID,356,VALID,0,
2012-08-04, 02:16:04,VALID,916.615,VALID,0,VALID,95.3918,VALID,0,VALID,19.5888,VALID,356,VALID,0,
2012-08-04, 02:17:04,VALID,916.591,VALID,0,VALID,95.3994,VALID,0,VALID,19.5888,VALID,356,VALID,0,
2012-08-04, 02:18:04,VALID,916.56,VALID,0,VALID,95.4299,VALID,0,VALID,19.5678,VALID,356,VALID,0,
2012-08-04, 02:19:04,VALID,916.545,VALID,0,VALID,95.3461,VALID,0,VALID,19.5888,VALID,356,VALID,0,
2012-08-04, 02:20:04,VALID,916.546,VALID,0,VALID,95.3079,VALID,0,VALID,19.5483,VALID,356,VALID,0,
2012-08-04, 02:21:04,VALID,916.531,VALID,0,VALID,95.3461,VALID,0,VALID,19.5093,VALID,356,VALID,0,
2012-08-04, 02:22:04,VALID,916.517,VALID,0,VALID,95.4757,VALID,0,VALID,19.5093,VALID,356,VALID,0,
2012-08-04, 02:23:04,VALID,916.45,VALID,0,VALID,95.4604,VALID,0,VALID,19.5108,VALID,356,VALID,0,
2012-08-04, 02:24:04,VALID,916.407,VALID,0,VALID,95.4985,VALID,0,VALID,19.4913,VALID,356,VALID,0,
2012-08-04, 02:25:04,VALID,916.37,VALID,0,VALID,95.5748,VALID,0,VALID,19.4703,VALID,354,VALID,0,
2012-08-04, 02:26:04,VALID,916.352,VALID,0,VALID,95.6281,VALID,0,VALID,19.4508,VALID,349,VALID,0,
2012-08-04, 02:27:04,VALID,916.331,VALID,0,VALID,95.6891,VALID,0,VALID,19.4718,VALID,334,VALID,0,
2012-08-04, 02:28:04,VALID,916.297,VALID,0,VALID,95.7349,VALID,0,VALID,19.4718,VALID,334,VALID,0,
2012-08-04, 02:29:04,VALID,916.313,VALID,0,VALID,95.7654,VALID,0,VALID,19.4313,VALID,334,VALID,0,
2012-08-04, 02:30:04,VALID,916.301,VALID,0,VALID,95.8111,VALID,0,VALID,19.4523,VALID,314,VALID,0,
2012-08-04, 02:31:04,VALID,916.324,VALID,0,VALID,95.8492,VALID,0.107441,VALID,19.4313,VALID,316,VALID,0,
2012-08-04, 02:32:04,VALID,916.29,VALID,0,VALID,95.9254,VALID,0,VALID,19.4508,VALID,352,VALID,0,
2012-08-04, 02:33:04,VALID,916.31,VALID,0,VALID,95.9712,VALID,0,VALID,19.4523,VALID,352,VALID,0,
2012-08-04, 02:34:04,VALID,916.316,VALID,0,VALID,95.9941,VALID,0.107441,VALID,19.4508,VALID,352,VALID,0,
2012-08-04, 02:35:04,VALID,916.308,VALID,0,VALID,95.9712,VALID,0,VALID,19.4508,VALID,352,VALID,0,
2012-08-04, 02:36:04,VALID,916.305,VALID,0,VALID,95.9636,VALID,0,VALID,19.4313,VALID,352,VALID,0,
2012-08-04, 02:37:04,VALID,916.302,VALID,0,VALID,96.0245,VALID,0.107441,VALID,19.4313,VALID,352,VALID,0,
2012-08-04, 02:38:04,VALID,916.225,VALID,0,VALID,96.0398,VALID,0,VALID,19.4118,VALID,352,VALID,0,
2012-08-04, 02:39:04,VALID,916.237,VALID,0,VALID,96.055,VALID,0,VALID,19.4313,VALID,352,VALID,0,
2012-08-04, 02:40:04,VALID,916.217,VALID,0,VALID,96.0627,VALID,0,VALID,19.4327,VALID,340,VALID,0,
2012-08-04, 02:41:04,VALID,916.194,VALID,0,VALID,96.0245,VALID,0,VALID,19.4327,VALID,330,VALID,0,
2012-08-04, 02:42:04,VALID,916.184,VALID,0,VALID,96.0017,VALID,0,VALID,19.3923,VALID,346,VALID,0,
2012-08-04, 02:43:04,VALID,916.173,VALID,0,VALID,96.0474,VALID,0,VALID,19.4132,VALID,342,VALID,0,
2012-08-04, 02:44:04,VALID,916.183,VALID,0,VALID,96.0855,VALID,0,VALID,19.3923,VALID,342,VALID,0,
2012-08-04, 02:45:04,VALID,916.199,VALID,0,VALID,96.0627,VALID,0,VALID,19.4327,VALID,342,VALID,0,
2012-08-04, 02:46:04,VALID,916.207,VALID,0,VALID,96.0932,VALID,0,VALID,19.4523,VALID,342,VALID,0,
2012-08-04, 02:47:04,VALID,916.212,VALID,0,VALID,96.0703,VALID,0,VALID,19.4523,VALID,342,VALID,0,
2012-08-04, 02:48:04,VALID,916.211,VALID,0,VALID,96.0322,VALID,0,VALID,19.4523,VALID,342,VALID,0,
2012-08-04, 02:49:04,VALID,916.251,VALID,0,VALID,96.055,VALID,0,VALID,19.4118,VALID,342,VALID,0,
2012-08-04, 02:50:04,VALID,916.22,VALID,0,VALID,96.0627,VALID,0,VALID,19.4523,VALID,342,VALID,0,
2012-08-04, 02:51:04,VALID,916.19,VALID,0,VALID,96.0627,VALID,0,VALID,19.4313,VALID,342,VALID,0,
2012-08-04, 02:52:04,VALID,916.172,VALID,0,VALID,96.0627,VALID,0,VALID,19.4508,VALID,342,VALID,0,
2012-08-04, 02:53:04,VALID,916.153,VALID,0,VALID,96.0322,VALID,0.107441,VALID,19.4508,VALID,342,VALID,0,
2012-08-04, 02:54:04,VALID,916.13,VALID,0,VALID,96.0169,VALID,0,VALID,19.4718,VALID,342,VALID,0,
2012-08-04, 02:55:04,VALID,916.156,VALID,0,VALID,96.0017,VALID,0,VALID,19.4718,VALID,342,VALID,0,
2012-08-04, 02:56:04,VALID,916.12,VALID,0,VALID,95.9712,VALID,0,VALID,19.4718,VALID,342,VALID,0,
2012-08-04, 02:57:04,VALID,916.125,VALID,0,VALID,95.9559,VALID,0,VALID,19.4523,VALID,342,VALID,0,
2012-08-04, 02:58:04,VALID,916.148,VALID,0,VALID,95.9483,VALID,0,VALID,19.4118,VALID,342,VALID,0,
2012-08-04, 02:59:04,VALID,916.098,VALID,0,VALID,95.9331,VALID,0.107441,VALID,19.3923,VALID,342,VALID,0,
2012-08-04, 03:00:04,VALID,916.14,VALID,0,VALID,95.9178,VALID,0,VALID,19.3728,VALID,342,VALID,0,
2012-08-04, 03:01:04,VALID,916.186,VALID,0,VALID,95.9483,VALID,0,VALID,19.3742,VALID,342,VALID,0,
2012-08-04, 03:02:04,VALID,916.178,VALID,0,VALID,95.9788,VALID,0,VALID,19.3533,VALID,342,VALID,0,
2012-08-04, 03:03:04,VALID,916.178,VALID,0,VALID,95.9864,VALID,0,VALID,19.3547,VALID,342,VALID,0,
2012-08-04, 03:04:04,VALID,916.177,VALID,0,VALID,96.0322,VALID,0,VALID,19.3352,VALID,342,VALID,0,
2012-08-04, 03:05:04,VALID,916.185,VALID,0,VALID,96.0779,VALID,0,VALID,19.3547,VALID,342,VALID,0,
2012-08-04, 03:06:04,VALID,916.182,VALID,0,VALID,96.055,VALID,0,VALID,19.3338,VALID,342,VALID,0,
2012-08-04, 03:07:04,VALID,916.187,VALID,0,VALID,96.0093,VALID,0,VALID,19.3533,VALID,342,VALID,0,
2012-08-04, 03:08:04,VALID,916.184,VALID,0,VALID,95.9712,VALID,0,VALID,19.3547,VALID,342,VALID,0,
2012-08-04, 03:09:04,VALID,916.164,VALID,0,VALID,96.0017,VALID,0,VALID,19.3547,INVALID,360,VALID,0,
2012-08-04, 03:10:04,VALID,916.16,VALID,0,VALID,95.9864,VALID,0,VALID,19.3547,VALID,342,VALID,0,
2012-08-04, 03:11:04,VALID,916.139,VALID,0,VALID,96.0093,VALID,0,VALID,19.3338,VALID,342,VALID,0,
2012-08-04, 03:12:04,VALID,916.166,VALID,0,VALID,96.0017,VALID,0,VALID,19.3742,VALID,342,VALID,0,
2012-08-04, 03:13:04,VALID,916.154,VALID,0,VALID,96.0093,VALID,0,VALID,19.3338,VALID,342,VALID,0,
2012-08-04, 03:14:04,VALID,916.203,VALID,0,VALID,96.0169,VALID,0,VALID,19.3143,VALID,342,VALID,0,
2012-08-04, 03:15:04,VALID,916.205,VALID,0,VALID,96.055,VALID,0,VALID,19.3143,VALID,268,VALID,0,
2012-08-04, 03:16:04,VALID,916.206,VALID,0,VALID,96.0627,VALID,0,VALID,19.2948,VALID,268,VALID,0,
2012-08-04, 03:17:04,VALID,916.215,VALID,0,VALID,96.0932,VALID,0,VALID,19.2948,VALID,268,VALID,0,
2012-08-04, 03:18:04,VALID,916.218,VALID,0,VALID,96.1084,VALID,0,VALID,19.2753,VALID,268,VALID,0,
2012-08-04, 03:19:04,VALID,916.19,VALID,0,VALID,96.1236,VALID,0,VALID,19.2962,VALID,268,VALID,0,
2012-08-04, 03:20:04,VALID,916.196,VALID,0,VALID,96.1618,VALID,0,VALID,19.2948,VALID,268,VALID,0,
2012-08-04, 03:21:04,VALID,916.18,VALID,0,VALID,96.1923,VALID,0,VALID,19.3157,VALID,268,VALID,0,
2012-08-04, 03:22:04,VALID,916.161,VALID,0,VALID,96.2456,VALID,0,VALID,19.2962,VALID,268,VALID,0,
2012-08-04, 03:23:04,VALID,916.148,VALID,0,VALID,96.3066,VALID,0,VALID,19.3157,VALID,251,VALID,0,
2012-08-04, 03:24:04,VALID,916.16,VALID,0,VALID,96.3142,VALID,0,VALID,19.3157,VALID,239,VALID,0,
2012-08-04, 03:25:04,VALID,916.164,VALID,0,VALID,96.3447,VALID,0,VALID,19.2948,VALID,246,VALID,0,
2012-08-04, 03:26:04,VALID,916.174,VALID,0,VALID,96.3829,VALID,0,VALID,19.2948,VALID,246,VALID,0,
2012-08-04, 03:27:04,VALID,916.16,VALID,0,VALID,96.4133,VALID,0,VALID,19.3157,VALID,246,VALID,0,
2012-08-04, 03:28:04,VALID,916.158,VALID,0,VALID,96.4362,VALID,0,VALID,19.3157,VALID,246,VALID,0,
2012-08-04, 03:29:04,VALID,916.16,VALID,0,VALID,96.4896,VALID,0,VALID,19.3352,VALID,246,VALID,0,
2012-08-04, 03:30:04,VALID,916.162,VALID,0,VALID,96.4896,VALID,0,VALID,19.3338,VALID,246,VALID,0,
2012-08-04, 03:31:04,VALID,916.144,VALID,0,VALID,96.4591,VALID,0,VALID,19.3547,VALID,246,VALID,0,
2012-08-04, 03:32:04,VALID,916.117,VALID,0,VALID,96.4819,VALID,0,VALID,19.3352,VALID,247,VALID,0,
2012-08-04, 03:33:04,VALID,916.105,VALID,0,VALID,96.4972,VALID,0,VALID,19.3352,VALID,246,VALID,0,
2012-08-04, 03:34:04,VALID,916.108,VALID,0,VALID,96.5277,VALID,0,VALID,19.3547,VALID,246,VALID,0,
2012-08-04, 03:35:04,VALID,916.131,VALID,0,VALID,96.5429,VALID,0,VALID,19.3742,VALID,246,VALID,0,
2012-08-04, 03:36:04,VALID,916.12,VALID,0,VALID,96.5124,VALID,0,VALID,19.3547,VALID,246,VALID,0,
2012-08-04, 03:37:04,VALID,916.133,VALID,0,VALID,96.4972,VALID,0,VALID,19.3547,VALID,247,VALID,0,
2012-08-04, 03:38:04,VALID,916.119,VALID,0,VALID,96.5277,VALID,0,VALID,19.3547,VALID,247,VALID,0,
2012-08-04, 03:39:04,VALID,916.114,VALID,0,VALID,96.4896,VALID,0,VALID,19.3533,VALID,246,VALID,0,
2012-08-04, 03:40:04,VALID,916.089,VALID,0,VALID,96.5201,VALID,0,VALID,19.3742,VALID,246,VALID,0,
2012-08-04, 03:41:04,VALID,916.076,VALID,0,VALID,96.5506,VALID,0,VALID,19.3742,VALID,246,VALID,0,
2012-08-04, 03:42:04,VALID,916.047,VALID,0,VALID,96.5201,VALID,0,VALID,19.3937,VALID,246,VALID,0,
2012-08-04, 03:43:04,VALID,916.014,VALID,0,VALID,96.5201,VALID,0,VALID,19.4132,VALID,246,VALID,0,
2012-08-04, 03:44:04,VALID,916.034,VALID,0,VALID,96.5048,VALID,0,VALID,19.4118,VALID,246,VALID,0,
2012-08-04, 03:45:04,VALID,916.017,VALID,0,VALID,96.4819,VALID,0,VALID,19.3923,VALID,247,VALID,0,
2012-08-04, 03:46:04,VALID,916.034,VALID,0,VALID,96.4438,VALID,0,VALID,19.3937,VALID,246,VALID,0,
2012-08-04, 03:47:04,VALID,916.046,VALID,0,VALID,96.3905,VALID,0,VALID,19.3728,VALID,247,VALID,0,
2012-08-04, 03:48:04,VALID,916.025,VALID,0,VALID,96.3829,VALID,0,VALID,19.3937,VALID,246,VALID,0,
2012-08-04, 03:49:04,VALID,916.064,VALID,0,VALID,96.421,VALID,0,VALID,19.3742,VALID,246,VALID,0,
2012-08-04, 03:50:04,VALID,916.043,VALID,0,VALID,96.4515,VALID,0,VALID,19.3937,VALID,246,VALID,0,
2012-08-04, 03:51:04,VALID,916.008,VALID,0,VALID,96.4515,VALID,0,VALID,19.3923,VALID,246,VALID,0,
2012-08-04, 03:52:04,VALID,916.031,VALID,0,VALID,96.36,VALID,0,VALID,19.4132,VALID,246,VALID,0,
2012-08-04, 03:53:04,VALID,916.024,VALID,0,VALID,96.3295,VALID,0,VALID,19.4118,VALID,247,VALID,0,
2012-08-04, 03:54:04,VALID,916.035,VALID,0,VALID,96.3142,VALID,0,VALID,19.4132,VALID,247,VALID,0,
2012-08-04, 03:55:04,VALID,916.067,VALID,0,VALID,96.2685,VALID,0,VALID,19.4132,VALID,246,VALID,0,
2012-08-04, 03:56:04,VALID,916.108,VALID,0,VALID,96.2456,VALID,0,VALID,19.4313,VALID,246,VALID,0,
2012-08-04, 03:57:04,VALID,916.12,VALID,0,VALID,96.1999,VALID,0,VALID,19.4313,VALID,246,VALID,0,
2012-08-04, 03:58:04,VALID,916.137,VALID,0,VALID,96.1541,VALID,0,VALID,19.4523,VALID,247,VALID,0,